<?xml version="1.0" encoding="utf-8"?>
<gpx xmlns:xsi="http://www.w3.org/2001/XMLSchema-instance" xmlns:xsd="http://www.w3.org/2001/XMLSchema" version="1.1" creator="Shapelink.com" xmlns="http://www.topografix.com/GPX/1/1" xmlns:gpxtpx="http://www.garmin.com/xmlschemas/TrackPointExtension/v1">
  <metadata>
    <name>Caminar 4.18 km, 2019-07-31</name>
    <desc></desc>
    <author><name>Urban Kalla</name></author> 
    <time>1970-01-01T01:00:00Z</time>
  </metadata>
  <trk>
    <name>Caminar 4.18 km, 2019-07-31</name>
    <trkseg>
      <trkpt lat="67.856072" lon="20.226199">
        <ele>576.714</ele>
        <time>1970-01-01T01:00:00Z</time>
      </trkpt>
      <trkpt lat="67.856157" lon="20.226235">
        <ele>576.875</ele>
        <time>1970-01-01T01:00:00Z</time>
      </trkpt>
      <trkpt lat="67.856247" lon="20.226225">
        <ele>577</ele>
        <time>1970-01-01T01:00:00Z</time>
      </trkpt>
      <trkpt lat="67.856335" lon="20.226201">
        <ele>577.2</ele>
        <time>1970-01-01T01:00:00Z</time>
      </trkpt>
      <trkpt lat="67.856433" lon="20.226206">
        <ele>577.455</ele>
        <time>1970-01-01T01:00:00Z</time>
      </trkpt>
      <trkpt lat="67.85652" lon="20.226271">
        <ele>577.818</ele>
        <time>1970-01-01T01:00:00Z</time>
      </trkpt>
      <trkpt lat="67.85661" lon="20.226339">
        <ele>578.273</ele>
        <time>1970-01-01T01:00:00Z</time>
      </trkpt>
      <trkpt lat="67.856698" lon="20.226405">
        <ele>578.636</ele>
        <time>1970-01-01T01:00:00Z</time>
      </trkpt>
      <trkpt lat="67.856747" lon="20.226595">
        <ele>579.091</ele>
        <time>1970-01-01T01:00:00Z</time>
      </trkpt>
      <trkpt lat="67.85683" lon="20.22668">
        <ele>579.545</ele>
        <time>1970-01-01T01:00:00Z</time>
      </trkpt>
      <trkpt lat="67.856907" lon="20.226806">
        <ele>580.091</ele>
        <time>1970-01-01T01:00:00Z</time>
      </trkpt>
      <trkpt lat="67.856987" lon="20.22689">
        <ele>580.636</ele>
        <time>1970-01-01T01:00:00Z</time>
      </trkpt>
      <trkpt lat="67.857074" lon="20.226924">
        <ele>581.091</ele>
        <time>1970-01-01T01:00:00Z</time>
      </trkpt>
      <trkpt lat="67.857164" lon="20.226948">
        <ele>581.636</ele>
        <time>1970-01-01T01:00:00Z</time>
      </trkpt>
      <trkpt lat="67.857252" lon="20.226937">
        <ele>582.091</ele>
        <time>1970-01-01T01:00:00Z</time>
      </trkpt>
      <trkpt lat="67.85735" lon="20.226983">
        <ele>582.455</ele>
        <time>1970-01-01T01:00:00Z</time>
      </trkpt>
      <trkpt lat="67.85744" lon="20.227003">
        <ele>582.818</ele>
        <time>1970-01-01T01:00:00Z</time>
      </trkpt>
      <trkpt lat="67.857531" lon="20.227041">
        <ele>583.182</ele>
        <time>1970-01-01T01:00:00Z</time>
      </trkpt>
      <trkpt lat="67.857617" lon="20.227088">
        <ele>583.545</ele>
        <time>1970-01-01T01:00:00Z</time>
      </trkpt>
      <trkpt lat="67.857714" lon="20.227113">
        <ele>583.909</ele>
        <time>1970-01-01T01:00:00Z</time>
      </trkpt>
      <trkpt lat="67.857806" lon="20.227141">
        <ele>584.364</ele>
        <time>1970-01-01T01:00:00Z</time>
      </trkpt>
      <trkpt lat="67.857888" lon="20.227129">
        <ele>584.727</ele>
        <time>1970-01-01T01:00:00Z</time>
      </trkpt>
      <trkpt lat="67.857968" lon="20.227178">
        <ele>585.273</ele>
        <time>1970-01-01T01:00:00Z</time>
      </trkpt>
      <trkpt lat="67.85806" lon="20.227219">
        <ele>585.818</ele>
        <time>1970-01-01T01:00:00Z</time>
      </trkpt>
      <trkpt lat="67.858163" lon="20.227298">
        <ele>586.364</ele>
        <time>1970-01-01T01:00:00Z</time>
      </trkpt>
      <trkpt lat="67.858235" lon="20.227397">
        <ele>587</ele>
        <time>1970-01-01T01:00:00Z</time>
      </trkpt>
      <trkpt lat="67.858283" lon="20.227573">
        <ele>587.636</ele>
        <time>1970-01-01T01:00:00Z</time>
      </trkpt>
      <trkpt lat="67.858339" lon="20.227745">
        <ele>588.273</ele>
        <time>1970-01-01T01:00:00Z</time>
      </trkpt>
      <trkpt lat="67.858399" lon="20.2279">
        <ele>588.909</ele>
        <time>1970-01-01T01:00:00Z</time>
      </trkpt>
      <trkpt lat="67.858436" lon="20.22811">
        <ele>589.545</ele>
        <time>1970-01-01T01:00:00Z</time>
      </trkpt>
      <trkpt lat="67.858504" lon="20.22828">
        <ele>590.182</ele>
        <time>1970-01-01T01:00:00Z</time>
      </trkpt>
      <trkpt lat="67.858562" lon="20.228436">
        <ele>590.727</ele>
        <time>1970-01-01T01:00:00Z</time>
      </trkpt>
      <trkpt lat="67.858625" lon="20.228581">
        <ele>591.273</ele>
        <time>1970-01-01T01:00:00Z</time>
      </trkpt>
      <trkpt lat="67.858662" lon="20.228807">
        <ele>591.727</ele>
        <time>1970-01-01T01:00:00Z</time>
      </trkpt>
      <trkpt lat="67.858739" lon="20.228942">
        <ele>592.182</ele>
        <time>1970-01-01T01:00:00Z</time>
      </trkpt>
      <trkpt lat="67.858813" lon="20.229088">
        <ele>592.545</ele>
        <time>1970-01-01T01:00:00Z</time>
      </trkpt>
      <trkpt lat="67.858862" lon="20.229279">
        <ele>592.818</ele>
        <time>1970-01-01T01:00:00Z</time>
      </trkpt>
      <trkpt lat="67.858876" lon="20.229497">
        <ele>593.091</ele>
        <time>1970-01-01T01:00:00Z</time>
      </trkpt>
      <trkpt lat="67.85894" lon="20.229697">
        <ele>593.364</ele>
        <time>1970-01-01T01:00:00Z</time>
      </trkpt>
      <trkpt lat="67.859" lon="20.22989">
        <ele>593.455</ele>
        <time>1970-01-01T01:00:00Z</time>
      </trkpt>
      <trkpt lat="67.85906" lon="20.230084">
        <ele>593.545</ele>
        <time>1970-01-01T01:00:00Z</time>
      </trkpt>
      <trkpt lat="67.859094" lon="20.230291">
        <ele>593.545</ele>
        <time>1970-01-01T01:00:00Z</time>
      </trkpt>
      <trkpt lat="67.859156" lon="20.230454">
        <ele>593.455</ele>
        <time>1970-01-01T01:00:00Z</time>
      </trkpt>
      <trkpt lat="67.859211" lon="20.230645">
        <ele>593.364</ele>
        <time>1970-01-01T01:00:00Z</time>
      </trkpt>
      <trkpt lat="67.85925" lon="20.23085">
        <ele>593.182</ele>
        <time>1970-01-01T01:00:00Z</time>
      </trkpt>
      <trkpt lat="67.859281" lon="20.231055">
        <ele>593</ele>
        <time>1970-01-01T01:00:00Z</time>
      </trkpt>
      <trkpt lat="67.859337" lon="20.231232">
        <ele>592.818</ele>
        <time>1970-01-01T01:00:00Z</time>
      </trkpt>
      <trkpt lat="67.85938" lon="20.231443">
        <ele>592.545</ele>
        <time>1970-01-01T01:00:00Z</time>
      </trkpt>
      <trkpt lat="67.859406" lon="20.231659">
        <ele>592.273</ele>
        <time>1970-01-01T01:00:00Z</time>
      </trkpt>
      <trkpt lat="67.859459" lon="20.231856">
        <ele>592</ele>
        <time>1970-01-01T01:00:00Z</time>
      </trkpt>
      <trkpt lat="67.859476" lon="20.232072">
        <ele>591.727</ele>
        <time>1970-01-01T01:00:00Z</time>
      </trkpt>
      <trkpt lat="67.859483" lon="20.232293">
        <ele>591.364</ele>
        <time>1970-01-01T01:00:00Z</time>
      </trkpt>
      <trkpt lat="67.859536" lon="20.232483">
        <ele>591</ele>
        <time>1970-01-01T01:00:00Z</time>
      </trkpt>
      <trkpt lat="67.859584" lon="20.232663">
        <ele>590.636</ele>
        <time>1970-01-01T01:00:00Z</time>
      </trkpt>
      <trkpt lat="67.859642" lon="20.232823">
        <ele>590.182</ele>
        <time>1970-01-01T01:00:00Z</time>
      </trkpt>
      <trkpt lat="67.859714" lon="20.232958">
        <ele>589.727</ele>
        <time>1970-01-01T01:00:00Z</time>
      </trkpt>
      <trkpt lat="67.859795" lon="20.233054">
        <ele>589.182</ele>
        <time>1970-01-01T01:00:00Z</time>
      </trkpt>
      <trkpt lat="67.859866" lon="20.23318">
        <ele>588.636</ele>
        <time>1970-01-01T01:00:00Z</time>
      </trkpt>
      <trkpt lat="67.859935" lon="20.233326">
        <ele>588.182</ele>
        <time>1970-01-01T01:00:00Z</time>
      </trkpt>
      <trkpt lat="67.859999" lon="20.233477">
        <ele>587.636</ele>
        <time>1970-01-01T01:00:00Z</time>
      </trkpt>
      <trkpt lat="67.860064" lon="20.233639">
        <ele>587</ele>
        <time>1970-01-01T01:00:00Z</time>
      </trkpt>
      <trkpt lat="67.860134" lon="20.23381">
        <ele>586.545</ele>
        <time>1970-01-01T01:00:00Z</time>
      </trkpt>
      <trkpt lat="67.860158" lon="20.23406">
        <ele>586.182</ele>
        <time>1970-01-01T01:00:00Z</time>
      </trkpt>
      <trkpt lat="67.860189" lon="20.234298">
        <ele>585.727</ele>
        <time>1970-01-01T01:00:00Z</time>
      </trkpt>
      <trkpt lat="67.86018" lon="20.23453">
        <ele>585.273</ele>
        <time>1970-01-01T01:00:00Z</time>
      </trkpt>
      <trkpt lat="67.860212" lon="20.234736">
        <ele>584.909</ele>
        <time>1970-01-01T01:00:00Z</time>
      </trkpt>
      <trkpt lat="67.8602" lon="20.234983">
        <ele>584.455</ele>
        <time>1970-01-01T01:00:00Z</time>
      </trkpt>
      <trkpt lat="67.860194" lon="20.235221">
        <ele>584</ele>
        <time>1970-01-01T01:00:00Z</time>
      </trkpt>
      <trkpt lat="67.860213" lon="20.235461">
        <ele>583.636</ele>
        <time>1970-01-01T01:00:00Z</time>
      </trkpt>
      <trkpt lat="67.860251" lon="20.23567">
        <ele>583.182</ele>
        <time>1970-01-01T01:00:00Z</time>
      </trkpt>
      <trkpt lat="67.860302" lon="20.235853">
        <ele>582.818</ele>
        <time>1970-01-01T01:00:00Z</time>
      </trkpt>
      <trkpt lat="67.860345" lon="20.236079">
        <ele>582.545</ele>
        <time>1970-01-01T01:00:00Z</time>
      </trkpt>
      <trkpt lat="67.860357" lon="20.236329">
        <ele>582.182</ele>
        <time>1970-01-01T01:00:00Z</time>
      </trkpt>
      <trkpt lat="67.860329" lon="20.236534">
        <ele>581.818</ele>
        <time>1970-01-01T01:00:00Z</time>
      </trkpt>
      <trkpt lat="67.860312" lon="20.236766">
        <ele>581.545</ele>
        <time>1970-01-01T01:00:00Z</time>
      </trkpt>
      <trkpt lat="67.860308" lon="20.237005">
        <ele>581.273</ele>
        <time>1970-01-01T01:00:00Z</time>
      </trkpt>
      <trkpt lat="67.860287" lon="20.237243">
        <ele>581</ele>
        <time>1970-01-01T01:00:00Z</time>
      </trkpt>
      <trkpt lat="67.860276" lon="20.237456">
        <ele>580.818</ele>
        <time>1970-01-01T01:00:00Z</time>
      </trkpt>
      <trkpt lat="67.86026" lon="20.237679">
        <ele>580.636</ele>
        <time>1970-01-01T01:00:00Z</time>
      </trkpt>
      <trkpt lat="67.860275" lon="20.237909">
        <ele>580.364</ele>
        <time>1970-01-01T01:00:00Z</time>
      </trkpt>
      <trkpt lat="67.860297" lon="20.23815">
        <ele>580.182</ele>
        <time>1970-01-01T01:00:00Z</time>
      </trkpt>
      <trkpt lat="67.860319" lon="20.238372">
        <ele>580</ele>
        <time>1970-01-01T01:00:00Z</time>
      </trkpt>
      <trkpt lat="67.86033" lon="20.238612">
        <ele>579.818</ele>
        <time>1970-01-01T01:00:00Z</time>
      </trkpt>
      <trkpt lat="67.860355" lon="20.238832">
        <ele>579.636</ele>
        <time>1970-01-01T01:00:00Z</time>
      </trkpt>
      <trkpt lat="67.860408" lon="20.239034">
        <ele>579.455</ele>
        <time>1970-01-01T01:00:00Z</time>
      </trkpt>
      <trkpt lat="67.860432" lon="20.239249">
        <ele>579.273</ele>
        <time>1970-01-01T01:00:00Z</time>
      </trkpt>
      <trkpt lat="67.860401" lon="20.239463">
        <ele>579.182</ele>
        <time>1970-01-01T01:00:00Z</time>
      </trkpt>
      <trkpt lat="67.860378" lon="20.239713">
        <ele>579.091</ele>
        <time>1970-01-01T01:00:00Z</time>
      </trkpt>
      <trkpt lat="67.860359" lon="20.239944">
        <ele>579</ele>
        <time>1970-01-01T01:00:00Z</time>
      </trkpt>
      <trkpt lat="67.860335" lon="20.240155">
        <ele>578.909</ele>
        <time>1970-01-01T01:00:00Z</time>
      </trkpt>
      <trkpt lat="67.860328" lon="20.240371">
        <ele>578.818</ele>
        <time>1970-01-01T01:00:00Z</time>
      </trkpt>
      <trkpt lat="67.860316" lon="20.240622">
        <ele>578.727</ele>
        <time>1970-01-01T01:00:00Z</time>
      </trkpt>
      <trkpt lat="67.860302" lon="20.240879">
        <ele>578.545</ele>
        <time>1970-01-01T01:00:00Z</time>
      </trkpt>
      <trkpt lat="67.860283" lon="20.241095">
        <ele>578.364</ele>
        <time>1970-01-01T01:00:00Z</time>
      </trkpt>
      <trkpt lat="67.860292" lon="20.241336">
        <ele>578.182</ele>
        <time>1970-01-01T01:00:00Z</time>
      </trkpt>
      <trkpt lat="67.860283" lon="20.241568">
        <ele>577.909</ele>
        <time>1970-01-01T01:00:00Z</time>
      </trkpt>
      <trkpt lat="67.860269" lon="20.241797">
        <ele>577.636</ele>
        <time>1970-01-01T01:00:00Z</time>
      </trkpt>
      <trkpt lat="67.860303" lon="20.242007">
        <ele>577.273</ele>
        <time>1970-01-01T01:00:00Z</time>
      </trkpt>
      <trkpt lat="67.860312" lon="20.24225">
        <ele>576.818</ele>
        <time>1970-01-01T01:00:00Z</time>
      </trkpt>
      <trkpt lat="67.8603" lon="20.242478">
        <ele>576.182</ele>
        <time>1970-01-01T01:00:00Z</time>
      </trkpt>
      <trkpt lat="67.860302" lon="20.242723">
        <ele>575.545</ele>
        <time>1970-01-01T01:00:00Z</time>
      </trkpt>
      <trkpt lat="67.860318" lon="20.242937">
        <ele>574.818</ele>
        <time>1970-01-01T01:00:00Z</time>
      </trkpt>
      <trkpt lat="67.86034" lon="20.243156">
        <ele>574</ele>
        <time>1970-01-01T01:00:00Z</time>
      </trkpt>
      <trkpt lat="67.860405" lon="20.243354">
        <ele>573.091</ele>
        <time>1970-01-01T01:00:00Z</time>
      </trkpt>
      <trkpt lat="67.860436" lon="20.243569">
        <ele>572.091</ele>
        <time>1970-01-01T01:00:00Z</time>
      </trkpt>
      <trkpt lat="67.860473" lon="20.243794">
        <ele>570.909</ele>
        <time>1970-01-01T01:00:00Z</time>
      </trkpt>
      <trkpt lat="67.860528" lon="20.243969">
        <ele>569.636</ele>
        <time>1970-01-01T01:00:00Z</time>
      </trkpt>
      <trkpt lat="67.860583" lon="20.244179">
        <ele>568.273</ele>
        <time>1970-01-01T01:00:00Z</time>
      </trkpt>
      <trkpt lat="67.860647" lon="20.244347">
        <ele>566.909</ele>
        <time>1970-01-01T01:00:00Z</time>
      </trkpt>
      <trkpt lat="67.860718" lon="20.24447">
        <ele>565.545</ele>
        <time>1970-01-01T01:00:00Z</time>
      </trkpt>
      <trkpt lat="67.860778" lon="20.244645">
        <ele>564.364</ele>
        <time>1970-01-01T01:00:00Z</time>
      </trkpt>
      <trkpt lat="67.860844" lon="20.244812">
        <ele>563.182</ele>
        <time>1970-01-01T01:00:00Z</time>
      </trkpt>
      <trkpt lat="67.860925" lon="20.244955">
        <ele>562</ele>
        <time>1970-01-01T01:00:00Z</time>
      </trkpt>
      <trkpt lat="67.860999" lon="20.245075">
        <ele>560.818</ele>
        <time>1970-01-01T01:00:00Z</time>
      </trkpt>
      <trkpt lat="67.861053" lon="20.245261">
        <ele>559.727</ele>
        <time>1970-01-01T01:00:00Z</time>
      </trkpt>
      <trkpt lat="67.861026" lon="20.245487">
        <ele>558.636</ele>
        <time>1970-01-01T01:00:00Z</time>
      </trkpt>
      <trkpt lat="67.861005" lon="20.245725">
        <ele>557.636</ele>
        <time>1970-01-01T01:00:00Z</time>
      </trkpt>
      <trkpt lat="67.861049" lon="20.24592">
        <ele>556.818</ele>
        <time>1970-01-01T01:00:00Z</time>
      </trkpt>
      <trkpt lat="67.861104" lon="20.246117">
        <ele>556.091</ele>
        <time>1970-01-01T01:00:00Z</time>
      </trkpt>
      <trkpt lat="67.861154" lon="20.246288">
        <ele>555.455</ele>
        <time>1970-01-01T01:00:00Z</time>
      </trkpt>
      <trkpt lat="67.861205" lon="20.246458">
        <ele>554.909</ele>
        <time>1970-01-01T01:00:00Z</time>
      </trkpt>
      <trkpt lat="67.861279" lon="20.246623">
        <ele>554.364</ele>
        <time>1970-01-01T01:00:00Z</time>
      </trkpt>
      <trkpt lat="67.861348" lon="20.246746">
        <ele>553.909</ele>
        <time>1970-01-01T01:00:00Z</time>
      </trkpt>
      <trkpt lat="67.861432" lon="20.246863">
        <ele>553.455</ele>
        <time>1970-01-01T01:00:00Z</time>
      </trkpt>
      <trkpt lat="67.861512" lon="20.246948">
        <ele>553.091</ele>
        <time>1970-01-01T01:00:00Z</time>
      </trkpt>
      <trkpt lat="67.861573" lon="20.2471">
        <ele>552.909</ele>
        <time>1970-01-01T01:00:00Z</time>
      </trkpt>
      <trkpt lat="67.861648" lon="20.247258">
        <ele>552.818</ele>
        <time>1970-01-01T01:00:00Z</time>
      </trkpt>
      <trkpt lat="67.86173" lon="20.24739">
        <ele>552.727</ele>
        <time>1970-01-01T01:00:00Z</time>
      </trkpt>
      <trkpt lat="67.861813" lon="20.247504">
        <ele>552.636</ele>
        <time>1970-01-01T01:00:00Z</time>
      </trkpt>
      <trkpt lat="67.861891" lon="20.247574">
        <ele>552.545</ele>
        <time>1970-01-01T01:00:00Z</time>
      </trkpt>
      <trkpt lat="67.861964" lon="20.247684">
        <ele>552.455</ele>
        <time>1970-01-01T01:00:00Z</time>
      </trkpt>
      <trkpt lat="67.862026" lon="20.247826">
        <ele>552.364</ele>
        <time>1970-01-01T01:00:00Z</time>
      </trkpt>
      <trkpt lat="67.8621" lon="20.24794">
        <ele>552.273</ele>
        <time>1970-01-01T01:00:00Z</time>
      </trkpt>
      <trkpt lat="67.862158" lon="20.248118">
        <ele>552.091</ele>
        <time>1970-01-01T01:00:00Z</time>
      </trkpt>
      <trkpt lat="67.862222" lon="20.248262">
        <ele>552</ele>
        <time>1970-01-01T01:00:00Z</time>
      </trkpt>
      <trkpt lat="67.862282" lon="20.248442">
        <ele>552</ele>
        <time>1970-01-01T01:00:00Z</time>
      </trkpt>
      <trkpt lat="67.862356" lon="20.248595">
        <ele>551.909</ele>
        <time>1970-01-01T01:00:00Z</time>
      </trkpt>
      <trkpt lat="67.862412" lon="20.248759">
        <ele>551.909</ele>
        <time>1970-01-01T01:00:00Z</time>
      </trkpt>
      <trkpt lat="67.862479" lon="20.248925">
        <ele>552</ele>
        <time>1970-01-01T01:00:00Z</time>
      </trkpt>
      <trkpt lat="67.862546" lon="20.249096">
        <ele>552.091</ele>
        <time>1970-01-01T01:00:00Z</time>
      </trkpt>
      <trkpt lat="67.862591" lon="20.249309">
        <ele>552.182</ele>
        <time>1970-01-01T01:00:00Z</time>
      </trkpt>
      <trkpt lat="67.86264" lon="20.249494">
        <ele>552.273</ele>
        <time>1970-01-01T01:00:00Z</time>
      </trkpt>
      <trkpt lat="67.862673" lon="20.249695">
        <ele>552.364</ele>
        <time>1970-01-01T01:00:00Z</time>
      </trkpt>
      <trkpt lat="67.86273" lon="20.249877">
        <ele>552.455</ele>
        <time>1970-01-01T01:00:00Z</time>
      </trkpt>
      <trkpt lat="67.862782" lon="20.250094">
        <ele>552.636</ele>
        <time>1970-01-01T01:00:00Z</time>
      </trkpt>
      <trkpt lat="67.862832" lon="20.250267">
        <ele>552.909</ele>
        <time>1970-01-01T01:00:00Z</time>
      </trkpt>
      <trkpt lat="67.862887" lon="20.250467">
        <ele>553.182</ele>
        <time>1970-01-01T01:00:00Z</time>
      </trkpt>
      <trkpt lat="67.862921" lon="20.250662">
        <ele>553.545</ele>
        <time>1970-01-01T01:00:00Z</time>
      </trkpt>
      <trkpt lat="67.862967" lon="20.250856">
        <ele>553.909</ele>
        <time>1970-01-01T01:00:00Z</time>
      </trkpt>
      <trkpt lat="67.863004" lon="20.25106">
        <ele>554.364</ele>
        <time>1970-01-01T01:00:00Z</time>
      </trkpt>
      <trkpt lat="67.863036" lon="20.251262">
        <ele>554.909</ele>
        <time>1970-01-01T01:00:00Z</time>
      </trkpt>
      <trkpt lat="67.863032" lon="20.251478">
        <ele>555.455</ele>
        <time>1970-01-01T01:00:00Z</time>
      </trkpt>
      <trkpt lat="67.863011" lon="20.25169">
        <ele>556.091</ele>
        <time>1970-01-01T01:00:00Z</time>
      </trkpt>
      <trkpt lat="67.862979" lon="20.251927">
        <ele>556.727</ele>
        <time>1970-01-01T01:00:00Z</time>
      </trkpt>
      <trkpt lat="67.862948" lon="20.252136">
        <ele>557.364</ele>
        <time>1970-01-01T01:00:00Z</time>
      </trkpt>
      <trkpt lat="67.862944" lon="20.25236">
        <ele>558</ele>
        <time>1970-01-01T01:00:00Z</time>
      </trkpt>
      <trkpt lat="67.862983" lon="20.252577">
        <ele>558.545</ele>
        <time>1970-01-01T01:00:00Z</time>
      </trkpt>
      <trkpt lat="67.862999" lon="20.252829">
        <ele>559.091</ele>
        <time>1970-01-01T01:00:00Z</time>
      </trkpt>
      <trkpt lat="67.86304" lon="20.253062">
        <ele>559.545</ele>
        <time>1970-01-01T01:00:00Z</time>
      </trkpt>
      <trkpt lat="67.863071" lon="20.25331">
        <ele>560</ele>
        <time>1970-01-01T01:00:00Z</time>
      </trkpt>
      <trkpt lat="67.86308" lon="20.253552">
        <ele>560.455</ele>
        <time>1970-01-01T01:00:00Z</time>
      </trkpt>
      <trkpt lat="67.863047" lon="20.253771">
        <ele>560.818</ele>
        <time>1970-01-01T01:00:00Z</time>
      </trkpt>
      <trkpt lat="67.86299" lon="20.253942">
        <ele>561.273</ele>
        <time>1970-01-01T01:00:00Z</time>
      </trkpt>
      <trkpt lat="67.862936" lon="20.254147">
        <ele>561.636</ele>
        <time>1970-01-01T01:00:00Z</time>
      </trkpt>
      <trkpt lat="67.86286" lon="20.254234">
        <ele>562</ele>
        <time>1970-01-01T01:00:00Z</time>
      </trkpt>
      <trkpt lat="67.862805" lon="20.254397">
        <ele>562.364</ele>
        <time>1970-01-01T01:00:00Z</time>
      </trkpt>
      <trkpt lat="67.862764" lon="20.254583">
        <ele>562.727</ele>
        <time>1970-01-01T01:00:00Z</time>
      </trkpt>
      <trkpt lat="67.862711" lon="20.254784">
        <ele>563.091</ele>
        <time>1970-01-01T01:00:00Z</time>
      </trkpt>
      <trkpt lat="67.86266" lon="20.255018">
        <ele>563.364</ele>
        <time>1970-01-01T01:00:00Z</time>
      </trkpt>
      <trkpt lat="67.862624" lon="20.255239">
        <ele>563.636</ele>
        <time>1970-01-01T01:00:00Z</time>
      </trkpt>
      <trkpt lat="67.862577" lon="20.255447">
        <ele>563.818</ele>
        <time>1970-01-01T01:00:00Z</time>
      </trkpt>
      <trkpt lat="67.862521" lon="20.255617">
        <ele>563.818</ele>
        <time>1970-01-01T01:00:00Z</time>
      </trkpt>
      <trkpt lat="67.862466" lon="20.25579">
        <ele>563.909</ele>
        <time>1970-01-01T01:00:00Z</time>
      </trkpt>
      <trkpt lat="67.862408" lon="20.255948">
        <ele>563.909</ele>
        <time>1970-01-01T01:00:00Z</time>
      </trkpt>
      <trkpt lat="67.862356" lon="20.256114">
        <ele>563.909</ele>
        <time>1970-01-01T01:00:00Z</time>
      </trkpt>
      <trkpt lat="67.862296" lon="20.2563">
        <ele>563.909</ele>
        <time>1970-01-01T01:00:00Z</time>
      </trkpt>
      <trkpt lat="67.86224" lon="20.256482">
        <ele>563.909</ele>
        <time>1970-01-01T01:00:00Z</time>
      </trkpt>
      <trkpt lat="67.862177" lon="20.256659">
        <ele>563.909</ele>
        <time>1970-01-01T01:00:00Z</time>
      </trkpt>
      <trkpt lat="67.862107" lon="20.256814">
        <ele>564</ele>
        <time>1970-01-01T01:00:00Z</time>
      </trkpt>
      <trkpt lat="67.862044" lon="20.257003">
        <ele>564.091</ele>
        <time>1970-01-01T01:00:00Z</time>
      </trkpt>
      <trkpt lat="67.861985" lon="20.257189">
        <ele>564.182</ele>
        <time>1970-01-01T01:00:00Z</time>
      </trkpt>
      <trkpt lat="67.861917" lon="20.257354">
        <ele>564.273</ele>
        <time>1970-01-01T01:00:00Z</time>
      </trkpt>
      <trkpt lat="67.861855" lon="20.25749">
        <ele>564.455</ele>
        <time>1970-01-01T01:00:00Z</time>
      </trkpt>
      <trkpt lat="67.861764" lon="20.257582">
        <ele>564.636</ele>
        <time>1970-01-01T01:00:00Z</time>
      </trkpt>
      <trkpt lat="67.861678" lon="20.257681">
        <ele>564.818</ele>
        <time>1970-01-01T01:00:00Z</time>
      </trkpt>
      <trkpt lat="67.861625" lon="20.25785">
        <ele>564.909</ele>
        <time>1970-01-01T01:00:00Z</time>
      </trkpt>
      <trkpt lat="67.861567" lon="20.258019">
        <ele>565</ele>
        <time>1970-01-01T01:00:00Z</time>
      </trkpt>
      <trkpt lat="67.861505" lon="20.258196">
        <ele>565</ele>
        <time>1970-01-01T01:00:00Z</time>
      </trkpt>
      <trkpt lat="67.86143" lon="20.258346">
        <ele>564.909</ele>
        <time>1970-01-01T01:00:00Z</time>
      </trkpt>
      <trkpt lat="67.861353" lon="20.258493">
        <ele>564.727</ele>
        <time>1970-01-01T01:00:00Z</time>
      </trkpt>
      <trkpt lat="67.861282" lon="20.258616">
        <ele>564.455</ele>
        <time>1970-01-01T01:00:00Z</time>
      </trkpt>
      <trkpt lat="67.861213" lon="20.25875">
        <ele>564.182</ele>
        <time>1970-01-01T01:00:00Z</time>
      </trkpt>
      <trkpt lat="67.861134" lon="20.25889">
        <ele>563.818</ele>
        <time>1970-01-01T01:00:00Z</time>
      </trkpt>
      <trkpt lat="67.861062" lon="20.259032">
        <ele>563.364</ele>
        <time>1970-01-01T01:00:00Z</time>
      </trkpt>
      <trkpt lat="67.861015" lon="20.259245">
        <ele>562.727</ele>
        <time>1970-01-01T01:00:00Z</time>
      </trkpt>
      <trkpt lat="67.860941" lon="20.259384">
        <ele>562</ele>
        <time>1970-01-01T01:00:00Z</time>
      </trkpt>
      <trkpt lat="67.860875" lon="20.259516">
        <ele>561.364</ele>
        <time>1970-01-01T01:00:00Z</time>
      </trkpt>
      <trkpt lat="67.860811" lon="20.25965">
        <ele>560.636</ele>
        <time>1970-01-01T01:00:00Z</time>
      </trkpt>
      <trkpt lat="67.860743" lon="20.259842">
        <ele>560</ele>
        <time>1970-01-01T01:00:00Z</time>
      </trkpt>
      <trkpt lat="67.860677" lon="20.259988">
        <ele>559.364</ele>
        <time>1970-01-01T01:00:00Z</time>
      </trkpt>
      <trkpt lat="67.860616" lon="20.260165">
        <ele>558.727</ele>
        <time>1970-01-01T01:00:00Z</time>
      </trkpt>
      <trkpt lat="67.860568" lon="20.260356">
        <ele>558.091</ele>
        <time>1970-01-01T01:00:00Z</time>
      </trkpt>
      <trkpt lat="67.860488" lon="20.260472">
        <ele>557.455</ele>
        <time>1970-01-01T01:00:00Z</time>
      </trkpt>
      <trkpt lat="67.860417" lon="20.260601">
        <ele>556.909</ele>
        <time>1970-01-01T01:00:00Z</time>
      </trkpt>
      <trkpt lat="67.860352" lon="20.260733">
        <ele>556.455</ele>
        <time>1970-01-01T01:00:00Z</time>
      </trkpt>
      <trkpt lat="67.860284" lon="20.2609">
        <ele>556.091</ele>
        <time>1970-01-01T01:00:00Z</time>
      </trkpt>
      <trkpt lat="67.8602" lon="20.260929">
        <ele>555.818</ele>
        <time>1970-01-01T01:00:00Z</time>
      </trkpt>
      <trkpt lat="67.860119" lon="20.260969">
        <ele>555.636</ele>
        <time>1970-01-01T01:00:00Z</time>
      </trkpt>
      <trkpt lat="67.86003" lon="20.260986">
        <ele>555.545</ele>
        <time>1970-01-01T01:00:00Z</time>
      </trkpt>
      <trkpt lat="67.859944" lon="20.260988">
        <ele>555.455</ele>
        <time>1970-01-01T01:00:00Z</time>
      </trkpt>
      <trkpt lat="67.859859" lon="20.260993">
        <ele>555.455</ele>
        <time>1970-01-01T01:00:00Z</time>
      </trkpt>
      <trkpt lat="67.859761" lon="20.261008">
        <ele>555.455</ele>
        <time>1970-01-01T01:00:00Z</time>
      </trkpt>
      <trkpt lat="67.859678" lon="20.261005">
        <ele>555.545</ele>
        <time>1970-01-01T01:00:00Z</time>
      </trkpt>
      <trkpt lat="67.859581" lon="20.261027">
        <ele>555.636</ele>
        <time>1970-01-01T01:00:00Z</time>
      </trkpt>
      <trkpt lat="67.859498" lon="20.261006">
        <ele>555.727</ele>
        <time>1970-01-01T01:00:00Z</time>
      </trkpt>
      <trkpt lat="67.859414" lon="20.261047">
        <ele>555.727</ele>
        <time>1970-01-01T01:00:00Z</time>
      </trkpt>
      <trkpt lat="67.85933" lon="20.261065">
        <ele>555.727</ele>
        <time>1970-01-01T01:00:00Z</time>
      </trkpt>
      <trkpt lat="67.859233" lon="20.261101">
        <ele>555.636</ele>
        <time>1970-01-01T01:00:00Z</time>
      </trkpt>
      <trkpt lat="67.859146" lon="20.261105">
        <ele>555.455</ele>
        <time>1970-01-01T01:00:00Z</time>
      </trkpt>
      <trkpt lat="67.859065" lon="20.261078">
        <ele>555.182</ele>
        <time>1970-01-01T01:00:00Z</time>
      </trkpt>
      <trkpt lat="67.858984" lon="20.261067">
        <ele>554.909</ele>
        <time>1970-01-01T01:00:00Z</time>
      </trkpt>
      <trkpt lat="67.858901" lon="20.261091">
        <ele>554.727</ele>
        <time>1970-01-01T01:00:00Z</time>
      </trkpt>
      <trkpt lat="67.858809" lon="20.261074">
        <ele>554.545</ele>
        <time>1970-01-01T01:00:00Z</time>
      </trkpt>
      <trkpt lat="67.858714" lon="20.261035">
        <ele>554.364</ele>
        <time>1970-01-01T01:00:00Z</time>
      </trkpt>
      <trkpt lat="67.858626" lon="20.261016">
        <ele>554.182</ele>
        <time>1970-01-01T01:00:00Z</time>
      </trkpt>
      <trkpt lat="67.85854" lon="20.260939">
        <ele>554.091</ele>
        <time>1970-01-01T01:00:00Z</time>
      </trkpt>
      <trkpt lat="67.858462" lon="20.260821">
        <ele>554.091</ele>
        <time>1970-01-01T01:00:00Z</time>
      </trkpt>
      <trkpt lat="67.858396" lon="20.260673">
        <ele>554</ele>
        <time>1970-01-01T01:00:00Z</time>
      </trkpt>
      <trkpt lat="67.858361" lon="20.260467">
        <ele>554</ele>
        <time>1970-01-01T01:00:00Z</time>
      </trkpt>
      <trkpt lat="67.858311" lon="20.260253">
        <ele>554.091</ele>
        <time>1970-01-01T01:00:00Z</time>
      </trkpt>
      <trkpt lat="67.858266" lon="20.26007">
        <ele>554.273</ele>
        <time>1970-01-01T01:00:00Z</time>
      </trkpt>
      <trkpt lat="67.858193" lon="20.259955">
        <ele>554.455</ele>
        <time>1970-01-01T01:00:00Z</time>
      </trkpt>
      <trkpt lat="67.858115" lon="20.259784">
        <ele>554.636</ele>
        <time>1970-01-01T01:00:00Z</time>
      </trkpt>
      <trkpt lat="67.858049" lon="20.259607">
        <ele>554.818</ele>
        <time>1970-01-01T01:00:00Z</time>
      </trkpt>
      <trkpt lat="67.858002" lon="20.259406">
        <ele>555.091</ele>
        <time>1970-01-01T01:00:00Z</time>
      </trkpt>
      <trkpt lat="67.857995" lon="20.259162">
        <ele>555.364</ele>
        <time>1970-01-01T01:00:00Z</time>
      </trkpt>
      <trkpt lat="67.857977" lon="20.258941">
        <ele>555.545</ele>
        <time>1970-01-01T01:00:00Z</time>
      </trkpt>
      <trkpt lat="67.857992" lon="20.258727">
        <ele>555.818</ele>
        <time>1970-01-01T01:00:00Z</time>
      </trkpt>
      <trkpt lat="67.857987" lon="20.258513">
        <ele>556.182</ele>
        <time>1970-01-01T01:00:00Z</time>
      </trkpt>
      <trkpt lat="67.857982" lon="20.258271">
        <ele>556.636</ele>
        <time>1970-01-01T01:00:00Z</time>
      </trkpt>
      <trkpt lat="67.857957" lon="20.258047">
        <ele>557</ele>
        <time>1970-01-01T01:00:00Z</time>
      </trkpt>
      <trkpt lat="67.857937" lon="20.257819">
        <ele>557.455</ele>
        <time>1970-01-01T01:00:00Z</time>
      </trkpt>
      <trkpt lat="67.85795" lon="20.257597">
        <ele>557.909</ele>
        <time>1970-01-01T01:00:00Z</time>
      </trkpt>
      <trkpt lat="67.857939" lon="20.257356">
        <ele>558.273</ele>
        <time>1970-01-01T01:00:00Z</time>
      </trkpt>
      <trkpt lat="67.85793" lon="20.257109">
        <ele>558.727</ele>
        <time>1970-01-01T01:00:00Z</time>
      </trkpt>
      <trkpt lat="67.857908" lon="20.25689">
        <ele>559.182</ele>
        <time>1970-01-01T01:00:00Z</time>
      </trkpt>
      <trkpt lat="67.857887" lon="20.256671">
        <ele>559.636</ele>
        <time>1970-01-01T01:00:00Z</time>
      </trkpt>
      <trkpt lat="67.857891" lon="20.256435">
        <ele>560.182</ele>
        <time>1970-01-01T01:00:00Z</time>
      </trkpt>
      <trkpt lat="67.857874" lon="20.256197">
        <ele>560.727</ele>
        <time>1970-01-01T01:00:00Z</time>
      </trkpt>
      <trkpt lat="67.857859" lon="20.255946">
        <ele>561.273</ele>
        <time>1970-01-01T01:00:00Z</time>
      </trkpt>
      <trkpt lat="67.857869" lon="20.255701">
        <ele>561.727</ele>
        <time>1970-01-01T01:00:00Z</time>
      </trkpt>
      <trkpt lat="67.857895" lon="20.255495">
        <ele>562.273</ele>
        <time>1970-01-01T01:00:00Z</time>
      </trkpt>
      <trkpt lat="67.857898" lon="20.255262">
        <ele>562.727</ele>
        <time>1970-01-01T01:00:00Z</time>
      </trkpt>
      <trkpt lat="67.857889" lon="20.255047">
        <ele>563.273</ele>
        <time>1970-01-01T01:00:00Z</time>
      </trkpt>
      <trkpt lat="67.85789" lon="20.254816">
        <ele>563.818</ele>
        <time>1970-01-01T01:00:00Z</time>
      </trkpt>
      <trkpt lat="67.857905" lon="20.254599">
        <ele>564.273</ele>
        <time>1970-01-01T01:00:00Z</time>
      </trkpt>
      <trkpt lat="67.857957" lon="20.254425">
        <ele>564.636</ele>
        <time>1970-01-01T01:00:00Z</time>
      </trkpt>
      <trkpt lat="67.858003" lon="20.254248">
        <ele>565.091</ele>
        <time>1970-01-01T01:00:00Z</time>
      </trkpt>
      <trkpt lat="67.858014" lon="20.25403">
        <ele>565.455</ele>
        <time>1970-01-01T01:00:00Z</time>
      </trkpt>
      <trkpt lat="67.857986" lon="20.253791">
        <ele>565.818</ele>
        <time>1970-01-01T01:00:00Z</time>
      </trkpt>
      <trkpt lat="67.857989" lon="20.253573">
        <ele>566.182</ele>
        <time>1970-01-01T01:00:00Z</time>
      </trkpt>
      <trkpt lat="67.857987" lon="20.253353">
        <ele>566.636</ele>
        <time>1970-01-01T01:00:00Z</time>
      </trkpt>
      <trkpt lat="67.858015" lon="20.253133">
        <ele>567</ele>
        <time>1970-01-01T01:00:00Z</time>
      </trkpt>
      <trkpt lat="67.85808" lon="20.252967">
        <ele>567.455</ele>
        <time>1970-01-01T01:00:00Z</time>
      </trkpt>
      <trkpt lat="67.858115" lon="20.252767">
        <ele>567.818</ele>
        <time>1970-01-01T01:00:00Z</time>
      </trkpt>
      <trkpt lat="67.858187" lon="20.252602">
        <ele>568.182</ele>
        <time>1970-01-01T01:00:00Z</time>
      </trkpt>
      <trkpt lat="67.858254" lon="20.252475">
        <ele>568.545</ele>
        <time>1970-01-01T01:00:00Z</time>
      </trkpt>
      <trkpt lat="67.858294" lon="20.252263">
        <ele>568.909</ele>
        <time>1970-01-01T01:00:00Z</time>
      </trkpt>
      <trkpt lat="67.858353" lon="20.252068">
        <ele>569.182</ele>
        <time>1970-01-01T01:00:00Z</time>
      </trkpt>
      <trkpt lat="67.858419" lon="20.251924">
        <ele>569.545</ele>
        <time>1970-01-01T01:00:00Z</time>
      </trkpt>
      <trkpt lat="67.858484" lon="20.251767">
        <ele>569.727</ele>
        <time>1970-01-01T01:00:00Z</time>
      </trkpt>
      <trkpt lat="67.858557" lon="20.25159">
        <ele>569.909</ele>
        <time>1970-01-01T01:00:00Z</time>
      </trkpt>
      <trkpt lat="67.858617" lon="20.25141">
        <ele>570.091</ele>
        <time>1970-01-01T01:00:00Z</time>
      </trkpt>
      <trkpt lat="67.858681" lon="20.251237">
        <ele>570.273</ele>
        <time>1970-01-01T01:00:00Z</time>
      </trkpt>
      <trkpt lat="67.858744" lon="20.251064">
        <ele>570.364</ele>
        <time>1970-01-01T01:00:00Z</time>
      </trkpt>
      <trkpt lat="67.858804" lon="20.250902">
        <ele>570.455</ele>
        <time>1970-01-01T01:00:00Z</time>
      </trkpt>
      <trkpt lat="67.858865" lon="20.250756">
        <ele>570.545</ele>
        <time>1970-01-01T01:00:00Z</time>
      </trkpt>
      <trkpt lat="67.85892" lon="20.250559">
        <ele>570.636</ele>
        <time>1970-01-01T01:00:00Z</time>
      </trkpt>
      <trkpt lat="67.858987" lon="20.250387">
        <ele>570.727</ele>
        <time>1970-01-01T01:00:00Z</time>
      </trkpt>
      <trkpt lat="67.859062" lon="20.250238">
        <ele>570.727</ele>
        <time>1970-01-01T01:00:00Z</time>
      </trkpt>
      <trkpt lat="67.859134" lon="20.250097">
        <ele>570.636</ele>
        <time>1970-01-01T01:00:00Z</time>
      </trkpt>
      <trkpt lat="67.859188" lon="20.249914">
        <ele>570.636</ele>
        <time>1970-01-01T01:00:00Z</time>
      </trkpt>
      <trkpt lat="67.859264" lon="20.249787">
        <ele>570.636</ele>
        <time>1970-01-01T01:00:00Z</time>
      </trkpt>
      <trkpt lat="67.859328" lon="20.249609">
        <ele>570.636</ele>
        <time>1970-01-01T01:00:00Z</time>
      </trkpt>
      <trkpt lat="67.859407" lon="20.249478">
        <ele>570.636</ele>
        <time>1970-01-01T01:00:00Z</time>
      </trkpt>
      <trkpt lat="67.859477" lon="20.24933">
        <ele>570.727</ele>
        <time>1970-01-01T01:00:00Z</time>
      </trkpt>
      <trkpt lat="67.859533" lon="20.249157">
        <ele>570.909</ele>
        <time>1970-01-01T01:00:00Z</time>
      </trkpt>
      <trkpt lat="67.859507" lon="20.248942">
        <ele>571.182</ele>
        <time>1970-01-01T01:00:00Z</time>
      </trkpt>
      <trkpt lat="67.859508" lon="20.248719">
        <ele>571.455</ele>
        <time>1970-01-01T01:00:00Z</time>
      </trkpt>
      <trkpt lat="67.859471" lon="20.248508">
        <ele>571.727</ele>
        <time>1970-01-01T01:00:00Z</time>
      </trkpt>
      <trkpt lat="67.859424" lon="20.248299">
        <ele>572.091</ele>
        <time>1970-01-01T01:00:00Z</time>
      </trkpt>
      <trkpt lat="67.859389" lon="20.248089">
        <ele>572.364</ele>
        <time>1970-01-01T01:00:00Z</time>
      </trkpt>
      <trkpt lat="67.859385" lon="20.247858">
        <ele>572.545</ele>
        <time>1970-01-01T01:00:00Z</time>
      </trkpt>
      <trkpt lat="67.859446" lon="20.247684">
        <ele>572.636</ele>
        <time>1970-01-01T01:00:00Z</time>
      </trkpt>
      <trkpt lat="67.859524" lon="20.24752">
        <ele>572.545</ele>
        <time>1970-01-01T01:00:00Z</time>
      </trkpt>
      <trkpt lat="67.8596" lon="20.247352">
        <ele>572.364</ele>
        <time>1970-01-01T01:00:00Z</time>
      </trkpt>
      <trkpt lat="67.85967" lon="20.247243">
        <ele>572</ele>
        <time>1970-01-01T01:00:00Z</time>
      </trkpt>
      <trkpt lat="67.859753" lon="20.247116">
        <ele>571.545</ele>
        <time>1970-01-01T01:00:00Z</time>
      </trkpt>
      <trkpt lat="67.859834" lon="20.247019">
        <ele>571</ele>
        <time>1970-01-01T01:00:00Z</time>
      </trkpt>
      <trkpt lat="67.859925" lon="20.247017">
        <ele>570.364</ele>
        <time>1970-01-01T01:00:00Z</time>
      </trkpt>
      <trkpt lat="67.860004" lon="20.246956">
        <ele>569.727</ele>
        <time>1970-01-01T01:00:00Z</time>
      </trkpt>
      <trkpt lat="67.860094" lon="20.246857">
        <ele>569</ele>
        <time>1970-01-01T01:00:00Z</time>
      </trkpt>
      <trkpt lat="67.860154" lon="20.246667">
        <ele>568.364</ele>
        <time>1970-01-01T01:00:00Z</time>
      </trkpt>
      <trkpt lat="67.860216" lon="20.246491">
        <ele>567.818</ele>
        <time>1970-01-01T01:00:00Z</time>
      </trkpt>
      <trkpt lat="67.860284" lon="20.246313">
        <ele>567.455</ele>
        <time>1970-01-01T01:00:00Z</time>
      </trkpt>
      <trkpt lat="67.860345" lon="20.246169">
        <ele>567.091</ele>
        <time>1970-01-01T01:00:00Z</time>
      </trkpt>
      <trkpt lat="67.860392" lon="20.245989">
        <ele>566.909</ele>
        <time>1970-01-01T01:00:00Z</time>
      </trkpt>
      <trkpt lat="67.860426" lon="20.24578">
        <ele>566.909</ele>
        <time>1970-01-01T01:00:00Z</time>
      </trkpt>
      <trkpt lat="67.860462" lon="20.24558">
        <ele>567</ele>
        <time>1970-01-01T01:00:00Z</time>
      </trkpt>
      <trkpt lat="67.860488" lon="20.245338">
        <ele>567.182</ele>
        <time>1970-01-01T01:00:00Z</time>
      </trkpt>
      <trkpt lat="67.860541" lon="20.245137">
        <ele>567.545</ele>
        <time>1970-01-01T01:00:00Z</time>
      </trkpt>
      <trkpt lat="67.860533" lon="20.244906">
        <ele>568</ele>
        <time>1970-01-01T01:00:00Z</time>
      </trkpt>
      <trkpt lat="67.860505" lon="20.244686">
        <ele>568.636</ele>
        <time>1970-01-01T01:00:00Z</time>
      </trkpt>
      <trkpt lat="67.860496" lon="20.244471">
        <ele>569.364</ele>
        <time>1970-01-01T01:00:00Z</time>
      </trkpt>
      <trkpt lat="67.860466" lon="20.244226">
        <ele>570.182</ele>
        <time>1970-01-01T01:00:00Z</time>
      </trkpt>
      <trkpt lat="67.860425" lon="20.244029">
        <ele>571</ele>
        <time>1970-01-01T01:00:00Z</time>
      </trkpt>
      <trkpt lat="67.860399" lon="20.243798">
        <ele>571.909</ele>
        <time>1970-01-01T01:00:00Z</time>
      </trkpt>
      <trkpt lat="67.860357" lon="20.243589">
        <ele>572.818</ele>
        <time>1970-01-01T01:00:00Z</time>
      </trkpt>
      <trkpt lat="67.860345" lon="20.243365">
        <ele>573.636</ele>
        <time>1970-01-01T01:00:00Z</time>
      </trkpt>
      <trkpt lat="67.860292" lon="20.243202">
        <ele>574.455</ele>
        <time>1970-01-01T01:00:00Z</time>
      </trkpt>
      <trkpt lat="67.860289" lon="20.242981">
        <ele>575.182</ele>
        <time>1970-01-01T01:00:00Z</time>
      </trkpt>
      <trkpt lat="67.860292" lon="20.242761">
        <ele>575.818</ele>
        <time>1970-01-01T01:00:00Z</time>
      </trkpt>
      <trkpt lat="67.860277" lon="20.242523">
        <ele>576.364</ele>
        <time>1970-01-01T01:00:00Z</time>
      </trkpt>
      <trkpt lat="67.860256" lon="20.242292">
        <ele>576.909</ele>
        <time>1970-01-01T01:00:00Z</time>
      </trkpt>
      <trkpt lat="67.860248" lon="20.242072">
        <ele>577.364</ele>
        <time>1970-01-01T01:00:00Z</time>
      </trkpt>
      <trkpt lat="67.860259" lon="20.241837">
        <ele>577.727</ele>
        <time>1970-01-01T01:00:00Z</time>
      </trkpt>
      <trkpt lat="67.860249" lon="20.24159">
        <ele>578</ele>
        <time>1970-01-01T01:00:00Z</time>
      </trkpt>
      <trkpt lat="67.860252" lon="20.241359">
        <ele>578.273</ele>
        <time>1970-01-01T01:00:00Z</time>
      </trkpt>
      <trkpt lat="67.860235" lon="20.241129">
        <ele>578.455</ele>
        <time>1970-01-01T01:00:00Z</time>
      </trkpt>
      <trkpt lat="67.860244" lon="20.240904">
        <ele>578.636</ele>
        <time>1970-01-01T01:00:00Z</time>
      </trkpt>
      <trkpt lat="67.860287" lon="20.240684">
        <ele>578.727</ele>
        <time>1970-01-01T01:00:00Z</time>
      </trkpt>
      <trkpt lat="67.860335" lon="20.240508">
        <ele>578.818</ele>
        <time>1970-01-01T01:00:00Z</time>
      </trkpt>
      <trkpt lat="67.860338" lon="20.240288">
        <ele>578.909</ele>
        <time>1970-01-01T01:00:00Z</time>
      </trkpt>
      <trkpt lat="67.860356" lon="20.240071">
        <ele>579</ele>
        <time>1970-01-01T01:00:00Z</time>
      </trkpt>
      <trkpt lat="67.860371" lon="20.239833">
        <ele>579.091</ele>
        <time>1970-01-01T01:00:00Z</time>
      </trkpt>
      <trkpt lat="67.860399" lon="20.239592">
        <ele>579.182</ele>
        <time>1970-01-01T01:00:00Z</time>
      </trkpt>
      <trkpt lat="67.860428" lon="20.239351">
        <ele>579.273</ele>
        <time>1970-01-01T01:00:00Z</time>
      </trkpt>
      <trkpt lat="67.860395" lon="20.239132">
        <ele>579.364</ele>
        <time>1970-01-01T01:00:00Z</time>
      </trkpt>
      <trkpt lat="67.860361" lon="20.238892">
        <ele>579.545</ele>
        <time>1970-01-01T01:00:00Z</time>
      </trkpt>
      <trkpt lat="67.860342" lon="20.238672">
        <ele>579.727</ele>
        <time>1970-01-01T01:00:00Z</time>
      </trkpt>
      <trkpt lat="67.860315" lon="20.238467">
        <ele>579.909</ele>
        <time>1970-01-01T01:00:00Z</time>
      </trkpt>
      <trkpt lat="67.860302" lon="20.238236">
        <ele>580.091</ele>
        <time>1970-01-01T01:00:00Z</time>
      </trkpt>
      <trkpt lat="67.86031" lon="20.238015">
        <ele>580.273</ele>
        <time>1970-01-01T01:00:00Z</time>
      </trkpt>
      <trkpt lat="67.860305" lon="20.237761">
        <ele>580.545</ele>
        <time>1970-01-01T01:00:00Z</time>
      </trkpt>
      <trkpt lat="67.860287" lon="20.237547">
        <ele>580.727</ele>
        <time>1970-01-01T01:00:00Z</time>
      </trkpt>
      <trkpt lat="67.860298" lon="20.237303">
        <ele>580.818</ele>
        <time>1970-01-01T01:00:00Z</time>
      </trkpt>
      <trkpt lat="67.860341" lon="20.237085">
        <ele>581</ele>
        <time>1970-01-01T01:00:00Z</time>
      </trkpt>
      <trkpt lat="67.860328" lon="20.236863">
        <ele>581.273</ele>
        <time>1970-01-01T01:00:00Z</time>
      </trkpt>
      <trkpt lat="67.860337" lon="20.236631">
        <ele>581.545</ele>
        <time>1970-01-01T01:00:00Z</time>
      </trkpt>
      <trkpt lat="67.860356" lon="20.236385">
        <ele>581.818</ele>
        <time>1970-01-01T01:00:00Z</time>
      </trkpt>
      <trkpt lat="67.860351" lon="20.23614">
        <ele>582.091</ele>
        <time>1970-01-01T01:00:00Z</time>
      </trkpt>
      <trkpt lat="67.860344" lon="20.23592">
        <ele>582.455</ele>
        <time>1970-01-01T01:00:00Z</time>
      </trkpt>
      <trkpt lat="67.860305" lon="20.23572">
        <ele>582.818</ele>
        <time>1970-01-01T01:00:00Z</time>
      </trkpt>
      <trkpt lat="67.860289" lon="20.235488">
        <ele>583.273</ele>
        <time>1970-01-01T01:00:00Z</time>
      </trkpt>
      <trkpt lat="67.860272" lon="20.235221">
        <ele>583.636</ele>
        <time>1970-01-01T01:00:00Z</time>
      </trkpt>
      <trkpt lat="67.860236" lon="20.235018">
        <ele>584.182</ele>
        <time>1970-01-01T01:00:00Z</time>
      </trkpt>
      <trkpt lat="67.860207" lon="20.234792">
        <ele>584.727</ele>
        <time>1970-01-01T01:00:00Z</time>
      </trkpt>
      <trkpt lat="67.86017" lon="20.234576">
        <ele>585.273</ele>
        <time>1970-01-01T01:00:00Z</time>
      </trkpt>
      <trkpt lat="67.860129" lon="20.234387">
        <ele>585.818</ele>
        <time>1970-01-01T01:00:00Z</time>
      </trkpt>
      <trkpt lat="67.8601" lon="20.234172">
        <ele>586.364</ele>
        <time>1970-01-01T01:00:00Z</time>
      </trkpt>
      <trkpt lat="67.860052" lon="20.233948">
        <ele>586.818</ele>
        <time>1970-01-01T01:00:00Z</time>
      </trkpt>
      <trkpt lat="67.860018" lon="20.233728">
        <ele>587.364</ele>
        <time>1970-01-01T01:00:00Z</time>
      </trkpt>
      <trkpt lat="67.85997" lon="20.233541">
        <ele>587.818</ele>
        <time>1970-01-01T01:00:00Z</time>
      </trkpt>
      <trkpt lat="67.859916" lon="20.233338">
        <ele>588.364</ele>
        <time>1970-01-01T01:00:00Z</time>
      </trkpt>
      <trkpt lat="67.859852" lon="20.233201">
        <ele>588.818</ele>
        <time>1970-01-01T01:00:00Z</time>
      </trkpt>
      <trkpt lat="67.859801" lon="20.233021">
        <ele>589.364</ele>
        <time>1970-01-01T01:00:00Z</time>
      </trkpt>
      <trkpt lat="67.85973" lon="20.232887">
        <ele>589.818</ele>
        <time>1970-01-01T01:00:00Z</time>
      </trkpt>
      <trkpt lat="67.859683" lon="20.232703">
        <ele>590.273</ele>
        <time>1970-01-01T01:00:00Z</time>
      </trkpt>
      <trkpt lat="67.859614" lon="20.232536">
        <ele>590.727</ele>
        <time>1970-01-01T01:00:00Z</time>
      </trkpt>
      <trkpt lat="67.859558" lon="20.23235">
        <ele>591.091</ele>
        <time>1970-01-01T01:00:00Z</time>
      </trkpt>
      <trkpt lat="67.859498" lon="20.232163">
        <ele>591.455</ele>
        <time>1970-01-01T01:00:00Z</time>
      </trkpt>
      <trkpt lat="67.859429" lon="20.232018">
        <ele>591.909</ele>
        <time>1970-01-01T01:00:00Z</time>
      </trkpt>
      <trkpt lat="67.859378" lon="20.23181">
        <ele>592.273</ele>
        <time>1970-01-01T01:00:00Z</time>
      </trkpt>
      <trkpt lat="67.859363" lon="20.231568">
        <ele>592.636</ele>
        <time>1970-01-01T01:00:00Z</time>
      </trkpt>
      <trkpt lat="67.85933" lon="20.231341">
        <ele>592.909</ele>
        <time>1970-01-01T01:00:00Z</time>
      </trkpt>
      <trkpt lat="67.859273" lon="20.231152">
        <ele>593.182</ele>
        <time>1970-01-01T01:00:00Z</time>
      </trkpt>
      <trkpt lat="67.859226" lon="20.230975">
        <ele>593.364</ele>
        <time>1970-01-01T01:00:00Z</time>
      </trkpt>
      <trkpt lat="67.859204" lon="20.230734">
        <ele>593.545</ele>
        <time>1970-01-01T01:00:00Z</time>
      </trkpt>
      <trkpt lat="67.859152" lon="20.230523">
        <ele>593.636</ele>
        <time>1970-01-01T01:00:00Z</time>
      </trkpt>
      <trkpt lat="67.859094" lon="20.23036">
        <ele>593.636</ele>
        <time>1970-01-01T01:00:00Z</time>
      </trkpt>
      <trkpt lat="67.859062" lon="20.23013">
        <ele>593.636</ele>
        <time>1970-01-01T01:00:00Z</time>
      </trkpt>
      <trkpt lat="67.859009" lon="20.229929">
        <ele>593.545</ele>
        <time>1970-01-01T01:00:00Z</time>
      </trkpt>
      <trkpt lat="67.858956" lon="20.229756">
        <ele>593.364</ele>
        <time>1970-01-01T01:00:00Z</time>
      </trkpt>
      <trkpt lat="67.858874" lon="20.229574">
        <ele>593.091</ele>
        <time>1970-01-01T01:00:00Z</time>
      </trkpt>
      <trkpt lat="67.858816" lon="20.229384">
        <ele>592.818</ele>
        <time>1970-01-01T01:00:00Z</time>
      </trkpt>
      <trkpt lat="67.858769" lon="20.229146">
        <ele>592.545</ele>
        <time>1970-01-01T01:00:00Z</time>
      </trkpt>
      <trkpt lat="67.858725" lon="20.228939">
        <ele>592.182</ele>
        <time>1970-01-01T01:00:00Z</time>
      </trkpt>
      <trkpt lat="67.858671" lon="20.228755">
        <ele>591.818</ele>
        <time>1970-01-01T01:00:00Z</time>
      </trkpt>
      <trkpt lat="67.858606" lon="20.228594">
        <ele>591.364</ele>
        <time>1970-01-01T01:00:00Z</time>
      </trkpt>
      <trkpt lat="67.858534" lon="20.228458">
        <ele>590.818</ele>
        <time>1970-01-01T01:00:00Z</time>
      </trkpt>
      <trkpt lat="67.858453" lon="20.22831">
        <ele>590.273</ele>
        <time>1970-01-01T01:00:00Z</time>
      </trkpt>
      <trkpt lat="67.858386" lon="20.228135">
        <ele>589.636</ele>
        <time>1970-01-01T01:00:00Z</time>
      </trkpt>
      <trkpt lat="67.858336" lon="20.227943">
        <ele>589.091</ele>
        <time>1970-01-01T01:00:00Z</time>
      </trkpt>
      <trkpt lat="67.858287" lon="20.227737">
        <ele>588.545</ele>
        <time>1970-01-01T01:00:00Z</time>
      </trkpt>
      <trkpt lat="67.858237" lon="20.227564">
        <ele>588</ele>
        <time>1970-01-01T01:00:00Z</time>
      </trkpt>
      <trkpt lat="67.858147" lon="20.227457">
        <ele>587.455</ele>
        <time>1970-01-01T01:00:00Z</time>
      </trkpt>
      <trkpt lat="67.858068" lon="20.227406">
        <ele>586.909</ele>
        <time>1970-01-01T01:00:00Z</time>
      </trkpt>
      <trkpt lat="67.857982" lon="20.227357">
        <ele>586.455</ele>
        <time>1970-01-01T01:00:00Z</time>
      </trkpt>
      <trkpt lat="67.857889" lon="20.227325">
        <ele>585.909</ele>
        <time>1970-01-01T01:00:00Z</time>
      </trkpt>
      <trkpt lat="67.857792" lon="20.227304">
        <ele>585.364</ele>
        <time>1970-01-01T01:00:00Z</time>
      </trkpt>
      <trkpt lat="67.857702" lon="20.227313">
        <ele>585</ele>
        <time>1970-01-01T01:00:00Z</time>
      </trkpt>
      <trkpt lat="67.857612" lon="20.227302">
        <ele>584.545</ele>
        <time>1970-01-01T01:00:00Z</time>
      </trkpt>
      <trkpt lat="67.857525" lon="20.227294">
        <ele>584.182</ele>
        <time>1970-01-01T01:00:00Z</time>
      </trkpt>
      <trkpt lat="67.85744" lon="20.227281">
        <ele>583.727</ele>
        <time>1970-01-01T01:00:00Z</time>
      </trkpt>
      <trkpt lat="67.85736" lon="20.2272">
        <ele>583.273</ele>
        <time>1970-01-01T01:00:00Z</time>
      </trkpt>
      <trkpt lat="67.857286" lon="20.227043">
        <ele>582.818</ele>
        <time>1970-01-01T01:00:00Z</time>
      </trkpt>
      <trkpt lat="67.857198" lon="20.227034">
        <ele>582.364</ele>
        <time>1970-01-01T01:00:00Z</time>
      </trkpt>
      <trkpt lat="67.857105" lon="20.227011">
        <ele>581.909</ele>
        <time>1970-01-01T01:00:00Z</time>
      </trkpt>
      <trkpt lat="67.857021" lon="20.226907">
        <ele>581.455</ele>
        <time>1970-01-01T01:00:00Z</time>
      </trkpt>
      <trkpt lat="67.85694" lon="20.22684">
        <ele>581.091</ele>
        <time>1970-01-01T01:00:00Z</time>
      </trkpt>
      <trkpt lat="67.856851" lon="20.226784">
        <ele>580.727</ele>
        <time>1970-01-01T01:00:00Z</time>
      </trkpt>
      <trkpt lat="67.856768" lon="20.22677">
        <ele>580.364</ele>
        <time>1970-01-01T01:00:00Z</time>
      </trkpt>
      <trkpt lat="67.856681" lon="20.226746">
        <ele>580.091</ele>
        <time>1970-01-01T01:00:00Z</time>
      </trkpt>
      <trkpt lat="67.856588" lon="20.22682">
        <ele>579.818</ele>
        <time>1970-01-01T01:00:00Z</time>
      </trkpt>
      <trkpt lat="67.856496" lon="20.226793">
        <ele>579.636</ele>
        <time>1970-01-01T01:00:00Z</time>
      </trkpt>
      <trkpt lat="67.856409" lon="20.226777">
        <ele>579.364</ele>
        <time>1970-01-01T01:00:00Z</time>
      </trkpt>
      <trkpt lat="67.856319" lon="20.226734">
        <ele>579.091</ele>
        <time>1970-01-01T01:00:00Z</time>
      </trkpt>
      <trkpt lat="67.856228" lon="20.22669">
        <ele>578.818</ele>
        <time>1970-01-01T01:00:00Z</time>
      </trkpt>
      <trkpt lat="67.85614" lon="20.226668">
        <ele>578.7</ele>
        <time>1970-01-01T01:00:00Z</time>
      </trkpt>
      <trkpt lat="67.856058" lon="20.226621">
        <ele>578.556</ele>
        <time>1970-01-01T01:00:00Z</time>
      </trkpt>
      <trkpt lat="67.855996" lon="20.226476">
        <ele>578.375</ele>
        <time>1970-01-01T01:00:00Z</time>
      </trkpt>
      <trkpt lat="67.855926" lon="20.226309">
        <ele>578.286</ele>
        <time>1970-01-01T01:00:00Z</time>
      </trkpt>
      <trkpt lat="67.855918" lon="20.226295">
        <ele>578.167</ele>
        <time>1970-01-01T01:00:00Z</time>
      </trkpt>
    </trkseg>
  </trk>
</gpx>